Submittal Forms
Current Contests
Recent Contests

Club Activity Tracker - Frankford Radio Club (from club selection on form)

Recent postings for the selected club or group are listed below. Other than the call used, all calls listed are only those associated with the club or group. Click on a call to see the details of the posting.
Status Key: new=new posting, update=update prior posting, move=change club/group, delete=delete prior posting.

Sort by   for past

TimestampCallContestClassPowerScoreStatus
2021-05-14 21:02:46NR3ZKRC SSTSingle OpLP660new6426
2021-05-14 21:02:19WG3JKRC SSTSingle OpHP1,849new6426
2021-05-14 20:56:22WA3AANKRC SSTSingle OpHP140new6426
2021-05-13 04:05:27N2UUCWopsTSingle OpLP8,245new6421
2021-05-13 04:03:32K3ZACWopsTSingle OpLP5,727new6421
2021-05-13 04:03:13AA3BCWopsTSingle OpHP57,334new6421
2021-05-13 04:02:45NW3YCWopsTSingle OpHP13,431new6421
2021-05-13 04:02:30NR3ZCWopsTSingle OpLP324new6421
2021-05-13 04:02:28W3WHKCWopsTSingle OpLP4,402new6421
2021-05-13 04:02:06KC2LSDCWopsTSingle OpHP8,281new6421
 
2021-05-13 04:02:01N3ADCWopsTSingle OpHP22,484new6421
2021-05-13 04:01:56K3WJVCWopsTSingle OpHP37,232new6421
2021-05-13 04:01:51W8FJCWopsTSingle OpHP40,723new6421
2021-05-13 04:01:40K3PPCWopsTSingle OpLP6,942new6421
2021-05-13 04:01:35WA3AANCWopsTSingle OpHP8,645new6421
2021-05-13 04:01:06KE2DCWopsTSingle OpHP19,200new6421
2021-05-13 04:00:51NE2VCWopsTSingle OpLP3,402new6421
2021-05-13 04:00:47K3WWCWopsTSingle OpHP52,644new6421
2021-05-13 04:00:38K2TWCWopsTSingle OpHP15,240new6421
2021-05-13 03:45:30WA3GMCWopsTSingle OpHP1,444new6421
 
2021-05-13 03:36:58N2RCCWopsTSingle OpHP10,000new6421
2021-05-12 20:04:37K3ATOCWopsTSingle OpHP4,624new6420
2021-05-12 20:03:56K3ZACWopsTSingle OpHP8,100new6420
2021-05-12 20:03:31WA3GMCWopsTSingle OpHP1,332new6420
2021-05-12 20:03:16K3MDCWopsTSingle OpHP10,197new6420
2021-05-12 20:03:02AA3BCWopsTSingle OpHP46,620new6420
2021-05-12 20:02:22N3ADCWopsTSingle OpHP17,673new6420
2021-05-12 20:02:21W2MKMCWopsTSingle OpHP20,672new6420
2021-05-12 20:02:20W3PNMCWopsTSingle OpLP1,521new6420
2021-05-12 20:02:13KC2LSDCWopsTSingle OpHP4,968new6420
 
2021-05-12 20:01:59WB2PJHCWopsTSingle OpHP576new6420
2021-05-12 20:01:56W3WHKCWopsTSingle OpLP2,860new6420
2021-05-12 20:01:51W8FJCWopsTSingle OpHP24,160new6420
2021-05-12 20:01:47W3MACWopsTSingle OpHP8,832new6420
2021-05-12 20:01:43K3WJVCWopsTSingle OpHP19,448new6420
2021-05-12 20:01:29K3WWCWopsTSingle OpHP40,170new6420
2021-05-12 20:01:26N3RDCWopsTSingle OpHP35,100new6420
2021-05-12 20:01:23NR3ZCWopsTSingle OpLP2,162new6420
2021-05-12 20:01:22NE2VCWopsTSingle OpLP1,764new6420
2021-05-12 20:01:17WA3AANCWopsTSingle OpHP5,402new6420
 
2021-05-12 20:00:37KB3ZCWopsTSingle OpHP2,500new6420
2021-05-12 19:54:39K3PPCWopsTSingle OpLP2,209new6420
2021-05-12 19:44:48WG3JCWopsTSingle OpHP1,369new6420
2021-05-12 19:39:18NW3YCWopsTSingle OpHP4,221new6420
2021-05-12 19:32:41K3QPCWopsTSingle OpLP256new6420
2021-05-12 19:28:09W2NOCWopsTSingle OpHP1,764new6420
2021-05-12 19:12:26K2TWCWopsTSingle OpHP441new6420
2021-05-12 14:28:41NR3ZCWopsTSingle OpLP400new6419
2021-05-12 14:12:30N2EYCWopsTSingle OpLP3,840new6419
2021-05-12 14:05:34W3FVCWopsTSingle OpHP16,113new6419
 
2021-05-12 14:04:46K3ZACWopsTSingle OpHP16,384new6419
2021-05-12 14:04:00N2UUCWopsTSingle OpLP9,672new6419
2021-05-12 14:03:58WA3GMCWopsTSingle OpHP2,016new6419
2021-05-12 14:03:42AA3BCWopsTSingle OpHP66,732new6419
2021-05-12 14:03:31KC2LSDCWopsTSingle OpHP9,025new6419
2021-05-12 14:03:10K3WWCWopsTSingle OpHP57,500new6419
2021-05-12 14:03:07WG3JCWopsTSingle OpHP19,404new6419
2021-05-12 14:02:43N3RDCWopsTSingle OpHP49,234new6419
2021-05-12 14:02:36N3ADCWopsTSingle OpHP14,756new6419
2021-05-12 14:02:34NE2VCWopsTSingle OpLP289new6419
 
2021-05-12 14:02:33K3MDCWopsTSingle OpHP14,396new6419
2021-05-12 14:02:16W8FJCWopsTSingle OpHP32,164new6419
2021-05-12 14:02:08W3KBCWopsTSingle OpLP11,526new6419
2021-05-12 14:01:52W2MKMCWopsTSingle OpHP20,736new6419
2021-05-12 14:01:39K3WJVCWopsTSingle OpHP31,680new6419
2021-05-12 14:01:29W3MACWopsTSingle OpHP11,016new6419
2021-05-12 14:01:18KE2DCWopsTSingle OpHP14,478new6419
2021-05-12 14:01:14WA3AANCWopsTSingle OpHP4,900new6419
2021-05-12 14:01:12K2TWCWopsTSingle OpHP16,851new6419
2021-05-12 13:59:43K3PPCWopsTSingle OpLP2,970new6419
 
2021-05-12 13:58:52K3ATOCWopsTSingle OpHP5,698new6419
2021-05-12 13:47:45NW3YCWopsTSingle OpHP3,600new6419
2021-05-12 13:45:15K3QPCWopsTSingle OpLP1,681new6419
2021-05-12 13:33:25W2NOCWopsTSingle OpHP1,845new6419
2021-05-10 15:19:26NX3AArQPSOMixedLP4,320new6413
2021-05-10 01:09:04WG3JKRC SSTSingle OpHP3,969new6415
2021-05-10 01:03:16W3WHKKRC SSTSingle OpLP1,092new6415
2021-05-10 01:02:43W3RGAKRC SSTSingle OpLP1,040new6415
2021-05-10 01:02:17K3PPKRC SSTSingle OpLP49new6415
2021-05-09 23:51:35K2QPNArQPSOMixedHP180new6413
 
2021-05-09 23:22:08W3WHKCQ-MSOABCWLP5,508new6412
2021-05-09 16:01:19AA3BCQ-MSOABCWHP877,572update6412
2021-05-09 15:34:30AA1KCQ-MSOSB/20CWHP65,670new6412
2021-05-09 14:14:04K3PPArQPSOCWLP680new6413
2021-05-09 14:06:05K3PPCQ-MSOABCWLP7,474new6412
2021-05-09 14:00:08N2AA(W2GD,@KU2C)CQ-MSOABCWHP105,210new6412
2021-05-09 13:39:36N2RCCQ-MSOABCWHP24,476new6412
2021-05-09 12:52:39K9RSArQPSOMixedHP15,255update6413
2021-05-09 12:37:57WA3AANArQPSOCWHP18new6413
2021-05-09 11:13:35N2NFVolta RTTYSOSB/20HP58,746,240new6411
 
2021-05-09 03:41:53N3RSCQ-MSOABCWLP76,010new6412
2021-05-09 03:00:19NF3R50SprngSprntSingle OpHP780new6414
2021-05-09 02:28:07K3MDVolta RTTYSOABHP3,879,219new6411
2021-05-09 02:26:44K3MDCQ-MSOABCWHP7,750new6412
2021-05-09 02:18:26K3WJVArQPSOMixedHP14,800new6413
2021-05-09 02:10:14W3WHKArQPSOCWLP864new6413
2021-05-09 00:33:21K3QPArQPSOMixedLP1,033new6413
2021-05-08 23:47:30AC3LZArQPSOSSBLP391new6413
2021-05-07 21:11:29WG3JKRC SSTSingle OpHP2,116new6410
2021-05-07 20:56:11NR3ZKRC SSTSingle OpLP425new6410
 
2021-05-06 04:09:34N2EYCWopsTSingle OpLP4,615new6404
2021-05-06 04:04:27WA3GMCWopsTSingle OpLP841new6404
2021-05-06 04:03:28WG3JCWopsTSingle OpHP5,775new6404
2021-05-06 04:03:12AA3BCWopsTSingle OpHP49,585new6404
2021-05-06 04:03:04N2UUCWopsTSingle OpLP8,075new6404
2021-05-06 04:02:25K3WJVCWopsTSingle OpHP28,836new6404
2021-05-06 04:02:17KC2LSDCWopsTSingle OpHP9,409new6404
2021-05-06 04:01:57N3ADCWopsTSingle OpHP22,896new6404
2021-05-06 04:01:53KE2DCWopsTSingle OpHP10,816new6404
2021-05-06 04:01:42NW3YCWopsTSingle OpHP12,321new6404
 
2021-05-06 04:01:41W3WHKCWopsTSingle OpLP5,772new6404
2021-05-06 04:01:26W8FJCWopsTSingle OpHP30,132new6404
2021-05-06 04:01:21K3PPCWopsTSingle OpLP6,720new6404
2021-05-06 04:01:01N2RCCWopsTSingle OpHP20,148new6404
2021-05-06 04:00:57WA3AANCWopsTSingle OpLP4,355new6404
2021-05-06 04:00:57K3WWCWopsTSingle OpHP46,330new6404
2021-05-06 04:00:36K2TWCWopsTSingle OpHP15,498new6404
2021-05-06 03:24:18N3TTTDeQPM/SQRP347,346update6396
 (N3TTT,AB1P,@AA1K)
2021-05-06 01:51:49KE2DCWopsTSingle OpHP400new6402
2021-05-05 22:03:41WA3GMCWopsTSingle OpLP36update6403
 
2021-05-05 21:06:53NR3ZCWopsTSingle OpLP784new6403
2021-05-05 20:05:20W3PNMCWopsTSingle OpLP3,025new6403
2021-05-05 20:04:10W3FVCWopsTSingle OpHP14,384new6403
2021-05-05 20:03:12K3ATOCWopsTSingle OpHP9,120new6403
2021-05-05 20:03:06K3ZACWopsTSingle OpHP11,124new6403
2021-05-05 20:02:56AA3BCWopsTSingle OpHP59,750new6403
2021-05-05 20:02:42WG3JCWopsTSingle OpHP8,736new6403
2021-05-05 20:02:28W2MKMCWopsTSingle OpHP14,400new6403
2021-05-05 20:02:18W3WHKCWopsTSingle OpLP3,300new6403
2021-05-05 20:02:18KC2LSDCWopsTSingle OpHP6,400new6403
 
2021-05-05 20:02:17K3MDCWopsTSingle OpHP16,375new6403
2021-05-05 20:02:08N3ADCWopsTSingle OpHP22,491new6403
2021-05-05 20:01:54K3PPCWopsTSingle OpHP9,900new6403
2021-05-05 20:01:32W8FJCWopsTSingle OpHP26,386new6403
2021-05-05 20:01:30K3WJVCWopsTSingle OpHP28,208new6403
2021-05-05 20:01:23W3MACWopsTSingle OpHP9,400new6403
2021-05-05 20:01:22N3RDCWopsTSingle OpHP34,726new6403
2021-05-05 20:01:20WA3AANCWopsTSingle OpLP3,844new6403
2021-05-05 20:01:06K3WWCWopsTSingle OpHP45,540new6403
2021-05-05 19:41:25K3QPCWopsTSingle OpLP2,025new6403
 
2021-05-05 19:34:08W2NOCWopsTSingle OpHP2,548new6403
2021-05-05 19:26:30K2TWCWopsTSingle OpHP1,024new6403
2021-05-05 19:09:56N3TTTNewEngQPM/SQRP8,624new6397
 (AA1K,AB1P,@N3TTT)
2021-05-05 19:08:13N3TTT7QPM/SQRP4,216new6394
 (AA1K,AB1P,@N3TTT)
2021-05-05 18:05:25NR3ZCWopsTSingle OpLP100new6402
2021-05-05 14:09:17K3MDCWopsTSingle OpHP11,639new6402
2021-05-05 14:08:38N3ADCWopsTSingle OpHP14,400new6402
2021-05-05 14:05:38W3FVCWopsTSingle OpHP14,934new6402
2021-05-05 14:05:26K3ATOCWopsTSingle OpHP5,621new6402
2021-05-05 14:05:09W3KBCWopsTSingle OpLP11,544new6402
 
2021-05-05 14:03:55AA3BCWopsTSingle OpHP66,732new6402
2021-05-05 14:03:27KC2LSDCWopsTSingle OpHP13,456new6402
2021-05-05 14:03:18WG3JCWopsTSingle OpHP19,110new6402
2021-05-05 14:03:10K3ZACWopsTSingle OpHP14,396new6402
2021-05-05 14:02:59NW3YCWopsTSingle OpHP11,224new6402
2021-05-05 14:02:45WA3GMCWopsTSingle OpLP1,755new6402
2021-05-05 14:02:24K3WJVCWopsTSingle OpHP37,185new6402
2021-05-05 14:02:08W8FJCWopsTSingle OpHP28,620new6402
2021-05-05 14:01:50N3RDCWopsTSingle OpHP44,622new6402
2021-05-05 14:01:35K3WWCWopsTSingle OpHP56,105new6402
 
2021-05-05 14:01:33W2MKMCWopsTSingle OpHP22,500new6402
2021-05-05 14:01:31WA3AANCWopsTSingle OpHP6,400new6402
2021-05-05 14:01:14W3MACWopsTSingle OpHP11,556new6402
2021-05-05 14:01:08NE2VCWopsTSingle OpLP576new6402
2021-05-05 14:01:06K3PPCWopsTSingle OpHP8,556new6402
2021-05-05 14:01:04K3QPCWopsTSingle OpLP7,308new6402
2021-05-05 14:00:45K2TWCWopsTSingle OpHP18,318new6402
2021-05-05 13:36:14W2NOCWopsTSingle OpHP2,650new6402
2021-05-03 15:12:33NW3YDeQPSingle OpLP50,562new6396
2021-05-03 15:02:42W2UDTNewEngQPSingle OpHP1,320new6397
 
2021-05-03 15:00:24WG3JKRC SSTSingle OpHP961new6398
2021-05-03 14:57:31W2UDTInQPSingle OpHP459new6395
2021-05-03 14:52:45W2UDTDeQPSingle OpHP90new6396
2021-05-03 14:47:53W2UDT7QPSOMixedHP3,978new6394
2021-05-03 14:35:21K3PP7QPSO(A)CWLP8,910new6394
2021-05-03 14:29:11K3PPDeQPSingle OpLP370new6396
2021-05-03 14:25:01K3PPNewEngQPSingle OpLP7,476new6397
2021-05-03 14:14:53NX3ANewEngQPSingle OpLP16,484new6397
2021-05-03 11:09:10N2RCNewEngQPSingle OpHP231new6397
2021-05-03 04:02:36WA3GMNewEngQPSingle OpLP992new6397
 
2021-05-03 03:22:21NX3AInQPSingle OpLP2,262new6395
2021-05-03 03:19:48NX3ADeQPSingle OpLP2,700new6396
2021-05-03 03:18:44NX3A7QPSOMixedLP20,944new6394
2021-05-03 02:20:21WA3AANInQPSingle OpHP2,268new6395
2021-05-03 02:18:41WA3AANNewEngQPSingle OpHP19,186new6397
2021-05-03 02:16:11WA3AANDeQPSingle OpHP1,080new6396
2021-05-03 02:14:34WA3AAN7QPSO(A)CWHP23,895new6394
2021-05-03 01:47:04W3WHK7QPSOCWLP14,400new6394
2021-05-03 01:41:51W3WHKInQPSingle OpLP672new6395
2021-05-03 01:37:25W3WHKDeQPSingle OpLP320new6396
 
2021-05-03 01:28:32K3WJVInQPSingle OpHP10,496new6395
2021-05-03 01:23:28K3WJVDeQPSingle OpHP2,000new6396
2021-05-03 01:17:10K3WJV7QPSO(A)MixedHP130,320new6394
2021-05-03 01:16:55K3QPNewEngQPSingle OpLP20,304update6397
2021-05-03 01:16:17K3QPDeQPSingle OpLP1,280update6396
2021-05-03 01:10:49K3WJVNewEngQPSingle OpHP43,090new6397
2021-05-03 01:03:22NR3ZKRC SSTSingle OpLP320new6398
2021-05-03 01:01:13WA3AANKRC SSTSingle OpHP1,512new6398
2021-05-03 01:01:05K2QPNNewEngQPSingle OpLP1,188new6397
2021-05-03 00:56:30K2QPNInQPSingle OpLP15new6395
 
2021-05-03 00:54:55K2QPNDeQPSingle OpLP4new6396
2021-05-03 00:53:10K2QPN7QPSO(A)MixedLP456new6394
2021-05-03 00:17:41KA3DNewEngQPM/SHP21,090new6397
 (KA3ZNI,@KA3D)
2021-05-03 00:16:20K9RSNewEngQPSingle OpHP15,288new6397
2021-05-03 00:15:30K9RSInQPSingle OpHP5,610new6395
2021-05-03 00:14:31K9RS7QPSO(A)MixedHP6,132new6394
2021-05-03 00:13:28K9RSDeQPSingle OpHP373,815new6396
2021-05-03 00:09:33W3WHKNewEngQPSingle OpLP11,250new6397
2021-05-03 00:06:56AC3LZDeQPSingle OpLP68,238new6396
2021-05-02 23:51:53N2UUNewEngQPSingle OpLP10,980new6397
 
2021-05-02 23:50:34N2UU7QPSO(A)CWLP2,952new6394
2021-05-02 23:49:07N2UUInQPSingle OpLP1,748new6395
2021-05-02 23:47:38N2UUDeQPSingle OpLP600new6396
2021-05-02 23:15:56K3QPInQPSingle OpLP3,264new6395
2021-05-02 23:14:28K3QP7QPSO(A)CWLP17,655new6394
2021-05-02 22:50:08W3FIZARISO MixedHP73,854new6393
2021-05-02 21:52:02W3WHKARISO CWLP810new6393
2021-05-02 17:50:38K3WWARISO CWHP248,820new6393
2021-05-02 16:54:31N3RSARISO CWHP1,227,600new6393
2021-05-02 13:49:03NY3AARISO CWHP476,010new6393
 
2021-05-02 13:04:55K3PPInQPSingle OpLP442new6395
2021-05-02 12:02:56AA3BARISO CWHP540,807new6393
2021-04-30 21:03:40WG3JKRC SSTSingle OpHP2,704new6391
2021-04-30 21:01:04WA3AANKRC SSTSingle OpLP216new6391
2021-04-30 20:41:50KC2LSDKRC SSTSingle OpHP187new6391
2021-04-30 06:25:05K3WJVCWopsTSingle OpHP25,368new6386
2021-04-29 10:43:07NR3ZCWopsTSingle OpLP121new6386
2021-04-29 04:06:47N2EYCWopsTSingle OpLP4,544new6386
2021-04-29 04:04:25W3WHKCWopsTSingle OpLP4,012new6386
2021-04-29 04:04:05AA3BCWopsTSingle OpHP48,438new6386
 
2021-04-29 04:03:23NW3YCWopsTSingle OpHP7,120new6386
2021-04-29 04:03:11N2UUCWopsTSingle OpLP8,256new6386
2021-04-29 04:03:05KE2DCWopsTSingle OpHP14,400new6386
2021-04-29 04:01:51W8FJCWopsTSingle OpHP32,256new6386
2021-04-29 04:01:40KC2LSDCWopsTSingle OpHP8,100new6386
2021-04-29 04:01:36WA3AANCWopsTSingle OpLP4,154new6386
2021-04-29 04:01:29K3WWCWopsTSingle OpHP47,025new6386
2021-04-29 04:01:22NE2VCWopsTSingle OpLP4,958new6386
2021-04-29 03:35:58WA3GMCWopsTSingle OpLP441new6386
2021-04-29 03:35:49K3PPCWopsTSingle OpLP2,550new6386
 
2021-04-28 20:19:09K3ATOCWopsTSingle OpHP8,742new6385
2021-04-28 20:05:54W3FVCWopsTSingle OpHP13,098new6385
2021-04-28 20:04:34W3BGCWopsTSingle OpHP1,444new6385
2021-04-28 20:04:27W3PNMCWopsTSingle OpLP2,116new6385
2021-04-28 20:03:36WG3JCWopsTSingle OpHP13,338new6385
2021-04-28 20:03:24K3ZACWopsTSingle OpHP12,876new6385
2021-04-28 20:03:11AA3BCWopsTSingle OpHP51,051new6385
2021-04-28 20:03:10W3WHKCWopsTSingle OpLP3,538new6385
2021-04-28 20:02:50KC2LSDCWopsTSingle OpHP4,896new6385
2021-04-28 20:02:10W3MACWopsTSingle OpHP10,812new6385
 
2021-04-28 20:01:49N3ADCWopsTSingle OpHP17,780new6385
2021-04-28 20:01:48K3MDCWopsTSingle OpHP12,880new6385
2021-04-28 20:01:47WA3AANCWopsTSingle OpLP3,660new6385
2021-04-28 20:01:38K3SWCWopsTSingle OpHP6,708new6385
2021-04-28 20:01:35WB2PJHCWopsTSingle OpHP529new6385
2021-04-28 20:01:33W8FJCWopsTSingle OpHP29,050new6385
2021-04-28 20:01:33N3RDCWopsTSingle OpHP38,316new6385
2021-04-28 20:01:25K3WJVCWopsTSingle OpHP24,462new6385
2021-04-28 20:01:17K3WWCWopsTSingle OpHP47,064new6385
2021-04-28 20:01:17NR3ZCWopsTSingle OpLP1,764new6385
 
2021-04-28 20:01:12W2MKMCWopsTSingle OpHP16,129new6385
2021-04-28 20:00:44KE2DCWopsTSingle OpHP8,649new6385
2021-04-28 19:54:18W2NOCWopsTSingle OpHP4,012new6385
2021-04-28 19:53:46K3PPCWopsTSingle OpLP1,024new6385
2021-04-28 19:46:13NE2VCWopsTSingle OpLP1,681new6385
2021-04-28 19:35:29K2TWCWopsTSingle OpHP2,703new6385
2021-04-28 19:28:58WA3GMCWopsTSingle OpQRP100new6385
2021-04-28 19:14:35K3QPCWopsTSingle OpLP225new6385
2021-04-28 16:34:05WA3GMCWopsTSingle OpQRP225new6384
2021-04-28 14:26:04KE2DCWopsTSingle OpHP13,189new6384
 
2021-04-28 14:25:13K3QPCWopsTSingle OpLP1,806new6384
2021-04-28 14:09:19N2EYCWopsTSingle OpLP4,544new6384
2021-04-28 14:08:53W3FVCWopsTSingle OpHP14,518new6384
2021-04-28 14:04:22K3ATOCWopsTSingle OpHP11,227new6384
2021-04-28 14:03:52W3KBCWopsTSingle OpLP12,430new6384
2021-04-28 14:03:31AA3BCWopsTSingle OpHP60,909new6384
2021-04-28 14:03:16K3ZACWopsTSingle OpHP14,760new6384
2021-04-28 14:02:59K3MDCWopsTSingle OpHP11,984new6384
2021-04-28 14:02:38W8FJCWopsTSingle OpHP31,635new6384
2021-04-28 14:02:30WG3JCWopsTSingle OpHP16,864new6384
 
2021-04-28 14:02:19NR3ZCWopsTSingle OpLP289new6384
2021-04-28 14:02:18KC2LSDCWopsTSingle OpHP8,836new6384
2021-04-28 14:02:04NW3YCWopsTSingle OpHP23,104new6384
2021-04-28 14:01:55K3WJVCWopsTSingle OpHP37,185new6384
2021-04-28 14:01:52N3ADCWopsTSingle OpHP25,050new6384
2021-04-28 14:01:41N3RDCWopsTSingle OpHP45,747new6384
2021-04-28 14:01:38W3MACWopsTSingle OpHP11,025new6384
2021-04-28 14:01:26WA3AANCWopsTSingle OpHP10,404new6384
2021-04-28 14:01:23K3WWCWopsTSingle OpHP65,392new6384
2021-04-28 14:01:10K3SWCWopsTSingle OpHP3,658new6384
 
2021-04-28 14:00:29K2TWCWopsTSingle OpHP11,988new6384
2021-04-28 13:50:50K3PPCWopsTSingle OpLP2,550new6384
2021-04-28 13:46:23NE2VCWopsTSingle OpLP1,260new6384
2021-04-28 13:44:25W2NOCWopsTSingle OpHP1,014new6384
2021-04-28 04:20:58W2AABFlQPSOABMixedLP10,830new6375
2021-04-28 02:41:36W2AABNeQPFixedLP2,268new6334
2021-04-28 02:17:14W2AABMiQPSingle OpLP7,448new6357
2021-04-27 23:47:59NX3AFlQPSOABSSBLP31,850new6375
2021-04-26 23:47:52K2QPNFlQPSOAB(A)MixedLP1,100new6375
2021-04-26 18:11:58NE2VFlQPSOAB(A)CWLP17,316update6375
 
2021-04-26 17:02:49WA3AANKRC SSTSingle OpLP510new6380
2021-04-26 15:57:53AC3LZFlQPSOAB(A)SSBHP9,696update6375
2021-04-26 04:05:14N2RCFlQPSOAB(A)MixedHP26,880update6375
2021-04-26 03:12:19K3PPKRC SSTSingle OpLP798new6380
2021-04-26 01:59:02KE2DFlQPSOAB(A)CWHP9,212new6375
2021-04-26 01:26:03WG3JKRC SSTSingle OpHP1,156new6380
2021-04-26 01:08:40WA3AANFlQPSOAB(A)CWLP12,402new6375
2021-04-26 00:15:20W2UDTFlQPSOABMixedHP7,695new6375
2021-04-25 23:04:56K3PPFlQPSOAB(A)CWLP13,260new6375
2021-04-25 22:58:27K3WJVFlQPSOAB(A)MixedHP89,500new6375
 
2021-04-25 22:56:15K3WWFlQPSOAB(A)MixedHP127,765new6375
2021-04-25 22:41:04WF3TFlQPSOABCWLP176,528new6375
2021-04-25 22:17:14NY3AFlQPSOAB(A)MixedHP121,670new6375
2021-04-25 22:10:27K3TSFlQPSOAB(A)CWLP10,578new6375
2021-04-25 22:08:45W3WHKFlQPSOABMixedLP20,520new6375
2021-04-25 22:08:20K9RSFlQPSOAB(A)MixedHP120,744new6375
2021-04-25 22:04:37K3QPFlQPSOAB(A)MixedLP40,080new6375
2021-04-25 22:02:02AA3BFlQPSOAB(A)CWHP25,850new6375
2021-04-25 21:24:16N2UUFlQPSOAB(A)CWLP6,832new6375
2021-04-25 20:53:38K3ZAFlQPSOAB(A)CWLP17,014new6375
 
2021-04-25 20:49:21W3FIZSPDX RTTYSOABHP1,292,760new6372
2021-04-25 18:13:29N3ADFlQPSOAB(A)MixedLP13,326new6375
2021-04-25 17:05:59WB2PJHFlQPSOABCWHP6,480new6375
2021-04-25 11:58:44N2NFSPDX RTTYSOABHP212,740new6372
2021-04-25 00:56:23K3MDSPDX RTTYSOABHP27,980new6372
2021-04-23 20:51:00WG3JKRC SSTSingle OpHP841new6371
2021-04-22 15:54:09KC2LSDCWopsTSingle OpHP144new6365
2021-04-22 04:10:26KE2DCWopsTSingle OpHP6,400new6366
2021-04-22 04:08:51N2UUCWopsTSingle OpLP8,064new6366
2021-04-22 04:06:43NY3ACWopsTSingle OpHP19,698new6366
 
2021-04-22 04:06:00N2EYCWopsTSingle OpLP4,080new6366
2021-04-22 04:04:31K3ZACWopsTSingle OpHP12,996new6366
2021-04-22 04:03:50AA3BCWopsTSingle OpHP55,278new6366
2021-04-22 04:03:44N2NTCWopsTSingle OpHP51,359new6366
2021-04-22 04:03:22W3WHKCWopsTSingle OpLP3,968new6365
2021-04-22 04:02:08W3WHKCWopsTSingle OpLP4,278new6366
2021-04-22 04:02:03W8FJCWopsTSingle OpHP34,170new6366
2021-04-22 04:02:02K3WJVCWopsTSingle OpHP37,024new6366
2021-04-22 04:01:20WA3AANCWopsTSingle OpLP7,120new6366
2021-04-22 04:01:11K3WWCWopsTSingle OpHP50,369new6366
 
2021-04-22 03:59:04K3PPCWopsTSingle OpLP6,806new6366
2021-04-22 03:15:38WA3GMCWopsTSingle OpLP324new6366
2021-04-22 03:15:36K2TWCWopsTSingle OpHP961new6366
2021-04-22 03:12:23KC2LSDCWopsTSingle OpLP100new6366
2021-04-22 01:57:25NF3R432SprngSprntSingle OpLP60new6367
2021-04-21 20:17:44W3WHKCQMM DXSOABLP1,020new6356
2021-04-21 20:10:35W3PNMCWopsTSingle OpLP2,601new6365
2021-04-21 20:06:23W3FVCWopsTSingle OpHP10,815new6365
2021-04-21 20:06:06W3WHKOnQPSO MixedLP5,544new5642
2021-04-21 20:05:14W3BGCWopsTSingle OpHP1,444new6365
 
2021-04-21 20:04:35AA3BCWopsTSingle OpHP47,064new6365
2021-04-21 20:04:12K3MDCWopsTSingle OpHP11,770new6365
2021-04-21 20:04:02K3ATOCWopsTSingle OpHP4,830new6365
2021-04-21 20:02:36K3WWCWopsTSingle OpHP44,096new6365
2021-04-21 20:02:32W8FJCWopsTSingle OpHP28,044new6365
2021-04-21 20:02:13NR3ZCWopsTSingle OpLP2,304new6365
2021-04-21 20:02:13WG3JCWopsTSingle OpHP11,449new6365
2021-04-21 20:02:08NY3ACWopsTSingle OpHP17,423new6365
2021-04-21 20:02:02K3WJVCWopsTSingle OpHP20,732new6365
2021-04-21 20:01:54W3MACWopsTSingle OpHP8,554new6365
 
2021-04-21 20:01:46N3RDCWopsTSingle OpHP35,512new6365
2021-04-21 20:01:43W2MKMCWopsTSingle OpHP18,753new6365
2021-04-21 20:01:36WB2PJHCWopsTSingle OpHP784new6365
2021-04-21 20:01:25WA3AANCWopsTSingle OpLP4,830new6365
2021-04-21 20:01:20WA3GMCWopsTSingle OpHP1,600new6365
2021-04-21 20:01:04KE2DCWopsTSingle OpHP12,432new6365
2021-04-21 20:01:01NE2VCWopsTSingle OpLP1,332new6365
2021-04-21 20:00:33K2TWCWopsTSingle OpHP9,800new6365
2021-04-21 19:59:08K3PPCWopsTSingle OpLP1,600new6365
2021-04-21 19:52:07K3QPCWopsTSingle OpLP729new6365
 
2021-04-21 19:40:17W2NOCWopsTSingle OpHP1,221new6365
2021-04-21 14:21:53W2MKMCQMM DXSOABHP53,766new6356
2021-04-21 14:06:06N2EYCWopsTSingle OpLP4,662new6364
2021-04-21 14:04:53K3ZACWopsTSingle OpHP12,540new6364
2021-04-21 14:04:26WG3JCWopsTSingle OpHP17,157new6364
2021-04-21 14:04:15K3ATOCWopsTSingle OpHP8,736new6364
2021-04-21 14:03:49AA3BCWopsTSingle OpHP45,954new6364
2021-04-21 14:03:05KC2LSDCWopsTSingle OpHP4,761new6364
2021-04-21 14:02:16W2MKMCWopsTSingle OpHP19,881new6364
2021-04-21 14:01:49K3WJVCWopsTSingle OpHP30,251new6364
 
2021-04-21 14:01:46NR3ZCWopsTSingle OpLP324new6364
2021-04-21 14:01:45K3MDCWopsTSingle OpHP14,278new6364
2021-04-21 14:01:43W8FJCWopsTSingle OpHP30,394new6364
2021-04-21 14:01:42W3KBCWopsTSingle OpLP10,197new6364
2021-04-21 14:01:38K3WWCWopsTSingle OpHP46,330new6364
2021-04-21 14:01:27N3RDCWopsTSingle OpHP36,966new6364
2021-04-21 14:01:22W3MACWopsTSingle OpHP8,554new6364
2021-04-21 14:01:20WA3AANCWopsTSingle OpHP6,561new6364
2021-04-21 14:01:04KE2DCWopsTSingle OpHP12,870new6364
2021-04-21 14:00:40K3QPCWopsTSingle OpLP1,849new6364
 
2021-04-21 13:57:19K3PPCWopsTSingle OpLP2,915new6364
2021-04-21 13:49:15NE2VCWopsTSingle OpLP1,295new6364
2021-04-21 13:46:28K2TWCWopsTSingle OpHP3,721new6364
2021-04-19 20:59:56WK2GCQMM DXSOABHP92,248new6356
2021-04-19 20:08:42K2QPNMiQPSingle OpLP209new6357
2021-04-19 20:04:20K2QPNOnQPSO MixedLP369new5642
2021-04-19 18:36:48N2MMCQMM DXYLHP311,619update6356
2021-04-19 16:36:23WA3AANCQMM DXSOSB/40HP4,318new6356
2021-04-19 15:55:03W2GD(KU2C)CQMM DXSOABHP133,311new6356
2021-04-19 02:15:57NY3ACQMM DXSOABHP633,360new6356
 
2021-04-19 01:07:44K3PPOnQPSO CWLP1,596new5642
2021-04-19 01:01:54K3PPKRC SSTSingle OpLP154new6358
2021-04-19 01:01:45W3RGAKRC SSTSingle OpHP1,596new6358
2021-04-19 01:01:26WA3AANKRC SSTSingle OpHP2,015new6358
2021-04-19 00:39:53AB2ECQMM DXSOABHP27,489new6356
2021-04-19 00:13:33W3FIZCQMM DXSOABLP112,336new6356
2021-04-19 00:11:38K3WWCQMM DXSOABHP1,281,472new6356
2021-04-19 00:02:28AA3BCQMM DXSOABHP2,546,775new6356
2021-04-18 23:01:22NE2VCQMM DXSOABLP22,860new6356
2021-04-18 22:50:25AB3CXCQMM DXSOABHP1,514,583new6356
 
2021-04-18 21:41:45WA3AANMiQPSingle OpHP3,010new6357
2021-04-18 21:37:07WA3AANOnQPSO MixedHP2,438new5642
2021-04-18 21:20:54N2UUCQMM DXSOABLP5,244new6356
2021-04-18 21:09:24N2UUOnQPSO CWLP992new5642
2021-04-18 20:27:15K3MDCQMM DXSOABHP61,225new6356
2021-04-18 18:10:47NX3AOnQPSO MixedHP16,980new5642
2021-04-18 18:07:10K3QPMiQPM/SLP10,140update6357
 (@K3QP)
2021-04-18 16:20:57K3QPOnQPSO MixedLP5,355new5642
2021-04-18 16:03:45K3WJVMiQPM/SHP24,817new6357
 (@K3WJV)
2021-04-18 04:29:00W3WHKMiQPSingle OpLP3,007new6357
 
2021-04-18 04:08:31NX3AMiQPSingle OpHP4,752new6357
2021-04-18 03:45:06K3PPMiQPSingle OpLP900new6357
2021-04-18 00:55:58N3RSCQMM DXSOABHP627,660new6356
2021-04-17 06:36:10WG3JKRC SSTSingle OpHP1,225new6351
2021-04-16 21:35:11N2UUGaQPSingle OpCWLP2,296new6336
2021-04-16 21:31:54N2UUNeQPFixedLP48new6334
2021-04-16 21:07:18K3ZAKRC SSTSingle OpHP1,734new6351
2021-04-16 21:05:43AA3KKRC SSTSingle OpLP340new6351
2021-04-16 05:45:30W2AABGaQPSingle OpMixedLP6,630new6336
2021-04-15 04:46:28KE2DCWopsTSingle OpHP900new6347
 
2021-04-15 04:11:41WA3GMCWopsTSingle OpLP441new6346
2021-04-15 04:08:17N2EYCWopsTSingle OpLP5,250new6347
2021-04-15 04:07:32WA3GMCWopsTSingle OpLP2,209new6347
2021-04-15 04:04:02K3ZACWopsTSingle OpHP8,256new6347
2021-04-15 04:04:00W3WHKCWopsTSingle OpLP4,757new6347
2021-04-15 04:03:46AA3BCWopsTSingle OpHP50,290new6347
2021-04-15 04:02:40KC2LSDCWopsTSingle OpHP9,409new6347
2021-04-15 04:02:40N3ADCWopsTSingle OpHP24,108new6347
2021-04-15 04:02:19N2UUCWopsTSingle OpLP10,573new6347
2021-04-15 04:02:13NW3YCWopsTSingle OpHP17,161new6347
 
2021-04-15 04:01:54W8FJCWopsTSingle OpHP37,332new6347
2021-04-15 04:01:53N2NTCWopsTSingle OpHP43,320new6347
2021-04-15 04:01:52K3WJVCWopsTSingle OpHP27,632new6347
2021-04-15 04:01:18K3WWCWopsTSingle OpHP50,268new6347
2021-04-15 04:01:16NE2VCWopsTSingle OpLP5,382new6347
2021-04-15 04:00:59WA3AANCWopsTSingle OpLP6,545new6347
2021-04-15 04:00:46K2TWCWopsTSingle OpHP19,872new6347
2021-04-15 03:55:00K3PPCWopsTSingle OpLP6,889new6347
2021-04-15 03:35:24N2RCCWopsTSingle OpHP6,970new